Location: Caltech
(34.1382°N, 118.1253°W)
Time: 16:04:33
(UTC-07:00)

Saudisat 1A - Visible Passes

Search period start: 22 October 2014 00:00
Search period end: 01 November 2014 00:00
Orbit: 598 x 608 km, 64.6° (Epoch: 22 October)

Date Brightness Start Highest point End Pass type
(mag) Time Alt. Az. Time Alt. Az. Time Alt. Az.
22 Oct 11.1 18:38:43 10° WNW 18:41:53 20° WSW 18:45:03 10° SSW visible
26 Oct 11.2 05:59:58 10° SE 06:02:21 14° ESE 06:04:44 10° ENE visible
27 Oct 10.2 06:10:25 10° S 06:14:12 29° ESE 06:18:00 10° NE visible
28 Oct 8.6 06:21:50 10° SSW 06:26:08 61° ESE 06:30:29 10° NE visible
29 Oct 8.0 06:33:51 10° SW 06:38:11 64° WNW 06:42:33 10° NNE visible
30 Oct 10.6 05:07:47 10° SSE 05:11:00 20° ESE 05:14:15 10° ENE visible
31 Oct 9.2 05:18:46 10° S 05:22:52 41° ESE 05:27:01 10° NE visible
